| time (UTC) | temp C | wind direction | speed KPH | gust KPH | rain 1hr cm | rain 24hr cm | rain mn cm | humidity % | barometer mb |
| 20260906035905 | 23 | 72 | 0.0 | 0.0 | 0.00 | 0.89 | 0.89 | 84 | 1046.7 |
| 20260906035400 | 23 | 72 | 0.0 | 0.0 | 0.00 | 0.89 | 0.89 | 84 | 1046.5 |
| 20260906034856 | 23 | 72 | 1.6 | 1.6 | 0.00 | 0.89 | 0.89 | 84 | 1046.5 |
| 20260906034355 | 23 | 72 | 0.0 | 1.6 | 0.00 | 0.89 | 0.89 | 85 | 1046.5 |
| 20260906033852 | 23 | 72 | 1.6 | 3.2 | 0.00 | 0.89 | 0.89 | 85 | 1046.3 |
| 20260906033351 | 23 | 72 | 0.0 | 0.0 | 0.00 | 0.89 | 0.89 | 85 | 1046.3 |
| 20260906032847 | 23 | 72 | 0.0 | 0.0 | 0.00 | 0.89 | 0.89 | 85 | 1046.3 |
| 20260906032343 | 23 | 72 | 0.0 | 0.0 | 0.00 | 0.89 | 0.89 | 84 | 1046.3 |
| 20260906031838 | 23 | 72 | 0.0 | 0.0 | 0.00 | 0.89 | 0.89 | 83 | 1046.3 |
| 20260906031333 | 23 | 72 | 0.0 | 0.0 | 0.00 | 0.89 | 0.89 | 83 | 1046.5 |
| 20260906030833 | 23 | 72 | 0.0 | 1.6 | 0.00 | 0.89 | 0.89 | 83 | 1046.5 |
| 20260906030328 | 23 | 71 | 3.2 | 3.2 | 0.00 | 0.89 | 0.89 | 83 | 1046.5 |
| 20260906025823 | 23 | 28 | 1.6 | 3.2 | 0.00 | 0.89 | 0.89 | 84 | 1046.6 |
| 20260906025317 | 23 | 333 | 0.0 | 0.0 | 0.00 | 0.89 | 0.89 | 84 | 1046.0 |
| 20260906024816 | 23 | 333 | 0.0 | 1.6 | 0.00 | 0.89 | 0.89 | 84 | 1046.4 |
| 20260906024315 | 23 | 333 | 0.0 | 1.6 | 0.00 | 0.89 | 0.89 | 84 | 1046.3 |
| 20260906023811 | 23 | 316 | 1.6 | 4.8 | 0.00 | 0.89 | 0.89 | 85 | 1046.6 |
| 20260906023306 | 24 | 326 | 3.2 | 4.8 | 0.00 | 0.89 | 0.89 | 83 | 1046.6 |
| 20260906022802 | 24 | 82 | 0.0 | 0.0 | 0.00 | 0.89 | 0.89 | 82 | 1046.1 |
| 20260906022256 | 24 | 82 | 0.0 | 0.0 | 0.00 | 0.89 | 0.89 | 82 | 1045.8 |
| 20260906021752 | 24 | 82 | 0.0 | 0.0 | 0.00 | 0.89 | 0.89 | 81 | 1045.9 |
| 20260906021251 | 24 | 82 | 0.0 | 0.0 | 0.00 | 0.89 | 0.89 | 81 | 1046.2 |
| 20260906020746 | 24 | 82 | 0.0 | 0.0 | 0.00 | 0.89 | 0.89 | 80 | 1046.2 |
| 20260906020246 | 25 | 82 | 0.0 | 1.6 | 0.00 | 0.89 | 0.89 | 81 | 1046.3 |
| 20260906015741 | 25 | 82 | 0.0 | 0.0 | 0.00 | 0.89 | 0.89 | 79 | 1046.0 |
| 20260906015239 | 25 | 82 | 0.0 | 1.6 | 0.00 | 0.89 | 0.89 | 78 | 1046.2 |
| 20260906014740 | 25 | 82 | 0.0 | 1.6 | 0.00 | 0.89 | 0.89 | 80 | 1046.2 |
| 20260906014235 | 25 | 82 | 0.0 | 0.0 | 0.00 | 0.89 | 0.89 | 79 | 1045.9 |
| 20260906013731 | 25 | 82 | 0.0 | 0.0 | 0.00 | 0.89 | 0.89 | 78 | 1046.0 |
| 20260906013231 | 25 | 82 | 0.0 | 0.0 | 0.00 | 0.89 | 0.89 | 77 | 1046.1 |
| 20260906012726 | 25 | 82 | 0.0 | 1.6 | 0.00 | 0.89 | 0.89 | 76 | 1045.9 |
| 20260906012221 | 25 | 82 | 3.2 | 3.2 | 0.00 | 0.89 | 0.89 | 77 | 1045.9 |
| 20260906011717 | 25 | 82 | 0.0 | 0.0 | 0.00 | 0.89 | 0.89 | 77 | 1045.9 |
| 20260906011211 | 25 | 82 | 1.6 | 1.6 | 0.00 | 0.89 | 0.89 | 77 | 1045.8 |
| 20260906010707 | 25 | 82 | 1.6 | 1.6 | 0.00 | 0.89 | 0.89 | 77 | 1045.7 |
| 20260906010203 | 25 | 82 | 1.6 | 1.6 | 0.00 | 0.89 | 0.89 | 77 | 1045.5 |
| 20260906005702 | 25 | 82 | 1.6 | 1.6 | 0.00 | 0.89 | 0.89 | 76 | 1045.4 |
| 20260906005202 | 26 | 82 | 0.0 | 1.6 | 0.00 | 0.89 | 0.89 | 75 | 1045.5 |
| 20260906004701 | 26 | 82 | 1.6 | 1.6 | 0.00 | 0.89 | 0.89 | 75 | 1045.6 |
| 20260906004156 | 26 | 82 | 0.0 | 1.6 | 0.00 | 0.89 | 0.89 | 74 | 1045.4 |
| 20260906003651 | 26 | 82 | 1.6 | 1.6 | 0.00 | 0.89 | 0.89 | 74 | 1045.4 |
| 20260906003147 | 26 | 82 | 1.6 | 3.2 | 0.00 | 0.89 | 0.89 | 74 | 1045.1 |
| 20260906002647 | 26 | 82 | 1.6 | 1.6 | 0.00 | 0.89 | 0.89 | 74 | 1045.0 |
| 20260906002142 | 27 | 82 | 0.0 | 0.0 | 0.00 | 0.89 | 0.89 | 73 | 1045.3 |
| 20260906001638 | 27 | 82 | 0.0 | 0.0 | 0.00 | 0.89 | 0.89 | 70 | 1045.6 |
| 20260906001137 | 27 | 82 | 0.0 | 0.0 | 0.00 | 0.89 | 0.89 | 69 | 1045.7 |
| 20260906000633 | 27 | 82 | 1.6 | 1.6 | 0.00 | 0.89 | 0.89 | 69 | 1045.5 |
| 20260906000129 | 28 | 82 | 3.2 | 3.2 | 0.00 | 0.89 | 0.89 | 68 | 1045.4 |
| 20260905235627 | 28 | 84 | 0.0 | 0.0 | 0.00 | 0.89 | 0.89 | 69 | 1045.8 |
| 20260905235122 | 28 | 73 | 3.2 | 4.8 | 0.00 | 0.89 | 0.89 | 69 | 1045.7 |
| 20260905234618 | 28 | 0 | 1.6 | 1.6 | 0.00 | 0.89 | 0.89 | 72 | 1045.8 |
| 20260905234114 | 28 | 298 | 0.0 | 0.0 | 0.00 | 0.89 | 0.89 | 71 | 1046.0 |
| 20260905233614 | 29 | 298 | 0.0 | 0.0 | 0.00 | 0.89 | 0.89 | 70 | 1045.7 |
| 20260905233108 | 29 | 298 | 0.0 | 0.0 | 0.00 | 0.89 | 0.89 | 70 | 1046.0 |
| 20260905232603 | 29 | 298 | 0.0 | 0.0 | 0.00 | 0.89 | 0.89 | 68 | 1045.9 |
| 20260905232059 | 30 | 298 | 0.0 | 1.6 | 0.00 | 0.89 | 0.89 | 69 | 1046.0 |
| 20260905231554 | 30 | 298 | 0.0 | 0.0 | 0.00 | 0.89 | 0.89 | 69 | 1046.1 |
| 20260905231050 | 30 | 298 | 0.0 | 0.0 | 0.00 | 0.89 | 0.89 | 68 | 1046.2 |
| 20260905230550 | 30 | 298 | 0.0 | 1.6 | 0.00 | 0.89 | 0.89 | 69 | 1045.9 |
| 20260905230048 | 30 | 298 | 3.2 | 3.2 | 0.00 | 0.89 | 0.89 | 64 | 1046.1 |
| 20260905225543 | 30 | 297 | 3.2 | 3.2 | 0.00 | 0.89 | 0.89 | 64 | 1045.9 |
| 20260905225038 | 31 | 297 | 1.6 | 3.2 | 0.00 | 0.89 | 0.89 | 65 | 1045.8 |
| 20260905224538 | 31 | 296 | 1.6 | 1.6 | 0.00 | 0.89 | 0.89 | 64 | 1045.9 |
| 20260905224037 | 31 | 296 | 1.6 | 1.6 | 0.00 | 0.89 | 0.89 | 62 | 1046.0 |
| 20260905223535 | 31 | 297 | 1.6 | 1.6 | 0.00 | 0.89 | 0.89 | 61 | 1045.7 |
| 20260905223031 | 31 | 308 | 1.6 | 1.6 | 0.00 | 0.89 | 0.89 | 63 | 1046.0 |
| 20260905222531 | 31 | 308 | 3.2 | 3.2 | 0.00 | 0.89 | 0.89 | 59 | 1045.9 |
| 20260905222026 | 32 | 318 | 3.2 | 4.8 | 0.00 | 0.89 | 0.89 | 57 | 1045.9 |
| 20260905221522 | 32 | 314 | 3.2 | 4.8 | 0.00 | 0.89 | 0.89 | 55 | 1045.9 |
| 20260905221018 | 32 | 321 | 1.6 | 4.8 | 0.00 | 0.89 | 0.89 | 55 | 1046.0 |
| 20260905220514 | 32 | 311 | 3.2 | 4.8 | 0.00 | 0.89 | 0.89 | 55 | 1045.7 |
| 20260905220010 | 32 | 315 | 3.2 | 6.4 | 0.00 | 0.89 | 0.89 | 56 | 1045.9 |
| 20260905215504 | 32 | 313 | 3.2 | 3.2 | 0.00 | 0.89 | 0.89 | 55 | 1045.9 |
| 20260905215000 | 33 | 319 | 3.2 | 3.2 | 0.00 | 0.89 | 0.89 | 54 | 1045.8 |
| 20260905214455 | 33 | 351 | 1.6 | 1.6 | 0.00 | 0.89 | 0.89 | 49 | 1045.9 |
| 20260905213955 | 33 | 325 | 3.2 | 4.8 | 0.00 | 0.89 | 0.89 | 54 | 1045.7 |
| 20260905213452 | 32 | 276 | 3.2 | 3.2 | 0.00 | 0.89 | 0.89 | 53 | 1045.6 |
| 20260905212947 | 32 | 309 | 3.2 | 4.8 | 0.00 | 0.89 | 0.89 | 51 | 1045.5 |
| 20260905212441 | 33 | 282 | 6.4 | 9.7 | 0.00 | 0.89 | 0.89 | 52 | 1045.5 |
| 20260905211941 | 33 | 283 | 6.4 | 6.4 | 0.00 | 0.89 | 0.89 | 51 | 1045.4 |
| 20260905211437 | 33 | 290 | 4.8 | 4.8 | 0.00 | 0.89 | 0.89 | 53 | 1045.4 |
| 20260905210932 | 32 | 247 | 3.2 | 4.8 | 0.00 | 0.89 | 0.89 | 50 | 1045.7 |
| 20260905210432 | 32 | 296 | 4.8 | 6.4 | 0.00 | 0.89 | 0.89 | 50 | 1045.7 |
| 20260905205932 | 32 | 253 | 4.8 | 4.8 | 0.00 | 0.89 | 0.89 | 52 | 1045.7 |
| 20260905205427 | 32 | 295 | 6.4 | 6.4 | 0.00 | 0.89 | 0.89 | 48 | 1045.6 |
| 20260905204926 | 33 | 299 | 6.4 | 9.7 | 0.00 | 0.89 | 0.89 | 48 | 1045.7 |
| 20260905204422 | 33 | 304 | 6.4 | 9.7 | 0.00 | 0.89 | 0.89 | 51 | 1045.9 |
| 20260905203921 | 33 | 123 | 1.6 | 3.2 | 0.00 | 0.89 | 0.89 | 50 | 1045.8 |
| 20260905203416 | 32 | 292 | 3.2 | 6.4 | 0.00 | 0.89 | 0.89 | 49 | 1045.8 |
| 20260905202912 | 33 | 270 | 4.8 | 4.8 | 0.00 | 0.89 | 0.89 | 48 | 1045.8 |
| 20260905202407 | 33 | 304 | 4.8 | 6.4 | 0.00 | 0.89 | 0.89 | 49 | 1046.1 |
| 20260905201902 | 33 | 260 | 0.0 | 1.6 | 0.00 | 0.89 | 0.89 | 49 | 1045.8 |
| 20260905201358 | 33 | 298 | 4.8 | 9.7 | 0.00 | 0.89 | 0.89 | 49 | 1046.1 |
| 20260905200857 | 33 | 311 | 6.4 | 6.4 | 0.00 | 0.89 | 0.89 | 50 | 1046.1 |
| 20260905200353 | 33 | 337 | 3.2 | 6.4 | 0.00 | 0.89 | 0.89 | 48 | 1046.4 |
| 20260905195851 | 33 | 309 | 4.8 | 4.8 | 0.00 | 0.89 | 0.89 | 48 | 1046.1 |
| 20260905195347 | 33 | 316 | 1.6 | 4.8 | 0.00 | 0.89 | 0.89 | 45 | 1046.4 |
| 20260905194842 | 32 | 294 | 4.8 | 9.7 | 0.00 | 0.89 | 0.89 | 50 | 1046.6 |
| 20260905194342 | 33 | 303 | 6.4 | 6.4 | 0.00 | 0.89 | 0.89 | 50 | 1046.5 |
| 20260905193841 | 33 | 342 | 1.6 | 4.8 | 0.00 | 0.89 | 0.89 | 48 | 1046.6 |
| 20260905193336 | 33 | 301 | 1.6 | 4.8 | 0.00 | 0.89 | 0.89 | 48 | 1046.5 |
| 20260905192832 | 33 | 307 | 3.2 | 4.8 | 0.00 | 0.89 | 0.89 | 47 | 1046.8 |
| 20260905192328 | 33 | 289 | 3.2 | 6.4 | 0.00 | 0.89 | 0.89 | 52 | 1046.9 |
| 20260905191827 | 33 | 247 | 3.2 | 6.4 | 0.00 | 0.89 | 0.89 | 51 | 1046.8 |
| 20260905191326 | 33 | 232 | 4.8 | 6.4 | 0.00 | 0.89 | 0.89 | 47 | 1046.9 |
| 20260905190825 | 33 | 223 | 4.8 | 4.8 | 0.00 | 0.89 | 0.89 | 51 | 1047.1 |
| 20260905190325 | 33 | 230 | 4.8 | 4.8 | 0.00 | 0.89 | 0.89 | 53 | 1047.1 |
| 20260905185824 | 33 | 278 | 3.2 | 4.8 | 0.00 | 0.89 | 0.89 | 49 | 1047.0 |
| 20260905185319 | 33 | 227 | 4.8 | 6.4 | 0.00 | 0.89 | 0.89 | 50 | 1047.1 |
| 20260905184818 | 33 | 219 | 3.2 | 6.4 | 0.00 | 0.89 | 0.89 | 49 | 1047.2 |
| 20260905184317 | 33 | 259 | 3.2 | 4.8 | 0.00 | 0.89 | 0.89 | 50 | 1047.3 |
| 20260905183815 | 33 | 228 | 6.4 | 6.4 | 0.00 | 0.89 | 0.89 | 51 | 1047.3 |
| 20260905183311 | 32 | 236 | 1.6 | 9.7 | 0.00 | 0.89 | 0.89 | 52 | 1047.3 |
| 20260905182806 | 32 | 202 | 4.8 | 4.8 | 0.00 | 0.89 | 0.89 | 51 | 1047.4 |
| 20260905182306 | 32 | 194 | 6.4 | 9.7 | 0.00 | 0.89 | 0.89 | 49 | 1047.5 |
| 20260905181801 | 32 | 237 | 6.4 | 9.7 | 0.00 | 0.89 | 0.89 | 52 | 1047.4 |
| 20260905181255 | 32 | 98 | 1.6 | 4.8 | 0.00 | 0.89 | 0.89 | 53 | 1047.6 |
| 20260905180754 | 32 | 212 | 1.6 | 4.8 | 0.00 | 0.89 | 0.89 | 54 | 1047.6 |
| 20260905180249 | 32 | 178 | 1.6 | 6.4 | 0.00 | 0.89 | 0.89 | 48 | 1047.8 |
| 20260905175744 | 32 | 205 | 6.4 | 11.3 | 0.00 | 0.89 | 0.89 | 50 | 1047.6 |
| 20260905175239 | 32 | 233 | 3.2 | 6.4 | 0.00 | 0.89 | 0.89 | 52 | 1047.9 |
| 20260905174734 | 32 | 234 | 1.6 | 4.8 | 0.00 | 0.89 | 0.89 | 52 | 1047.8 |
| 20260905174230 | 32 | 240 | 1.6 | 4.8 | 0.00 | 0.89 | 0.89 | 53 | 1047.9 |
| 20260905173726 | 32 | 209 | 3.2 | 9.7 | 0.00 | 0.89 | 0.89 | 50 | 1047.9 |
| 20260905173221 | 32 | 216 | 1.6 | 3.2 | 0.00 | 0.89 | 0.89 | 53 | 1048.0 |
| 20260905172720 | 31 | 138 | 1.6 | 4.8 | 0.00 | 0.89 | 0.89 | 52 | 1048.1 |
| 20260905172214 | 31 | 208 | 3.2 | 6.4 | 0.00 | 0.89 | 0.89 | 53 | 1048.0 |
| 20260905171710 | 31 | 200 | 3.2 | 6.4 | 0.00 | 0.89 | 0.89 | 52 | 1048.2 |
| 20260905171207 | 31 | 225 | 0.0 | 1.6 | 0.00 | 0.89 | 0.89 | 55 | 1048.3 |
| 20260905170704 | 30 | 229 | 4.8 | 4.8 | 0.00 | 0.89 | 0.89 | 59 | 1048.2 |
| 20260905170203 | 30 | 220 | 3.2 | 4.8 | 0.00 | 0.89 | 0.89 | 56 | 1048.3 |
| 20260905165703 | 30 | 203 | 6.4 | 6.4 | 0.00 | 0.89 | 0.89 | 56 | 1048.1 |
| 20260905165158 | 31 | 212 | 3.2 | 4.8 | 0.00 | 0.89 | 0.89 | 54 | 1048.3 |
| 20260905164653 | 31 | 215 | 4.8 | 6.4 | 0.00 | 0.89 | 0.89 | 53 | 1048.2 |
| 20260905164153 | 31 | 226 | 1.6 | 4.8 | 0.00 | 0.89 | 0.89 | 52 | 1048.2 |
| 20260905163648 | 30 | 105 | 1.6 | 3.2 | 0.00 | 0.89 | 0.89 | 57 | 1048.0 |
| 20260905163145 | 31 | 223 | 3.2 | 9.7 | 0.00 | 0.89 | 0.89 | 54 | 1048.5 |
| 20260905162642 | 31 | 76 | 3.2 | 3.2 | 0.00 | 0.89 | 0.89 | 56 | 1048.2 |
| 20260905162141 | 30 | 168 | 1.6 | 4.8 | 0.00 | 0.89 | 0.89 | 58 | 1048.2 |
| 20260905161640 | 30 | 187 | 1.6 | 4.8 | 0.00 | 0.89 | 0.89 | 59 | 1048.2 |
| 20260905161139 | 30 | 193 | 6.4 | 9.7 | 0.00 | 0.89 | 0.89 | 54 | 1048.4 |
| 20260905160633 | 30 | 240 | 3.2 | 4.8 | 0.00 | 0.89 | 0.89 | 54 | 1048.5 |
| 20260905160132 | 30 | 88 | 3.2 | 6.4 | 0.00 | 0.89 | 0.89 | 58 | 1048.5 |
| 20260905155632 | 30 | 200 | 1.6 | 4.8 | 0.00 | 0.89 | 0.89 | 60 | 1048.4 |
| 20260905155132 | 30 | 221 | 1.6 | 9.7 | 0.00 | 0.89 | 0.89 | 60 | 1048.5 |
| 20260905154632 | 30 | 88 | 1.6 | 6.4 | 0.00 | 0.89 | 0.89 | 60 | 1048.5 |
| 20260905154127 | 30 | 132 | 1.6 | 3.2 | 0.00 | 0.89 | 0.89 | 58 | 1048.6 |
| 20260905153623 | 30 | 76 | 3.2 | 4.8 | 0.00 | 0.89 | 0.89 | 61 | 1048.7 |
| 20260905153118 | 29 | 110 | 1.6 | 6.4 | 0.00 | 0.89 | 0.89 | 60 | 1048.7 |
| 20260905152613 | 29 | 96 | 4.8 | 9.7 | 0.00 | 0.89 | 0.89 | 60 | 1048.7 |
| 20260905152108 | 29 | 90 | 4.8 | 4.8 | 0.00 | 0.89 | 0.89 | 62 | 1048.7 |
| 20260905151603 | 28 | 226 | 3.2 | 4.8 | 0.00 | 0.89 | 0.89 | 65 | 1048.8 |
| 20260905151058 | 28 | 215 | 1.6 | 6.4 | 0.00 | 0.89 | 0.89 | 65 | 1048.7 |
| 20260905150554 | 27 | 111 | 3.2 | 6.4 | 0.00 | 0.89 | 0.89 | 70 | 1048.7 |
| 20260905150052 | 27 | 218 | 1.6 | 4.8 | 0.00 | 0.89 | 0.89 | 68 | 1048.8 |
| 20260905145550 | 27 | 95 | 4.8 | 6.4 | 0.00 | 0.89 | 0.89 | 71 | 1048.9 |
| 20260905145050 | 27 | 102 | 4.8 | 6.4 | 0.00 | 0.89 | 0.89 | 71 | 1048.8 |
| 20260905144545 | 26 | 86 | 3.2 | 11.3 | 0.00 | 0.89 | 0.89 | 72 | 1049.0 |
| 20260905144044 | 26 | 98 | 3.2 | 4.8 | 0.00 | 0.89 | 0.89 | 72 | 1049.3 |
| 20260905143543 | 26 | 112 | 4.8 | 6.4 | 0.00 | 0.89 | 0.89 | 73 | 1049.0 |
| 20260905143039 | 26 | 99 | 4.8 | 6.4 | 0.00 | 0.89 | 0.89 | 73 | 1049.2 |
| 20260905142537 | 25 | 97 | 1.6 | 4.8 | 0.00 | 0.89 | 0.89 | 76 | 1049.3 |
| 20260905142032 | 26 | 95 | 3.2 | 11.3 | 0.00 | 0.89 | 0.89 | 75 | 1049.3 |
| 20260905141526 | 25 | 74 | 0.0 | 6.4 | 0.00 | 0.89 | 0.89 | 77 | 1049.3 |
| 20260905141023 | 25 | 63 | 3.2 | 6.4 | 0.00 | 0.89 | 0.89 | 79 | 1049.4 |
| 20260905140518 | 24 | 75 | 1.6 | 11.3 | 0.00 | 0.89 | 0.89 | 78 | 1049.3 |
| 20260905140017 | 24 | 77 | 1.6 | 4.8 | 0.00 | 0.89 | 0.89 | 79 | 1049.5 |
| 20260905135513 | 23 | 103 | 3.2 | 12.9 | 0.00 | 0.89 | 0.89 | 80 | 1049.6 |
| 20260905135008 | 23 | 71 | 3.2 | 4.8 | 0.00 | 0.89 | 0.89 | 80 | 1049.8 |
| 20260905134508 | 23 | 104 | 3.2 | 4.8 | 0.00 | 0.89 | 0.89 | 83 | 1049.4 |
| 20260905134006 | 22 | 64 | 1.6 | 4.8 | 0.00 | 0.89 | 0.89 | 85 | 1049.6 |
| 20260905133456 | 22 | 46 | 4.8 | 9.7 | 0.00 | 0.89 | 0.89 | 85 | 1049.3 |
| 20260905132955 | 22 | 101 | 3.2 | 6.4 | 0.00 | 0.89 | 0.89 | 86 | 1049.7 |
| 20260905132451 | 22 | 81 | 3.2 | 9.7 | 0.00 | 0.89 | 0.89 | 86 | 1049.7 |
| 20260905131951 | 22 | 84 | 1.6 | 9.7 | 0.00 | 0.89 | 0.89 | 87 | 1049.9 |
| 20260905131447 | 21 | 85 | 6.4 | 11.3 | 0.00 | 0.89 | 0.89 | 88 | 1050.0 |
| 20260905130942 | 21 | 74 | 1.6 | 6.4 | 0.00 | 0.89 | 0.89 | 90 | 1050.0 |
| 20260905130441 | 21 | 308 | 1.6 | 3.2 | 0.00 | 0.89 | 0.89 | 90 | 1050.3 |
| 20260905125941 | 21 | 41 | 3.2 | 6.4 | 0.00 | 0.89 | 0.89 | 90 | 1050.0 |
| 20260905125436 | 21 | 34 | 3.2 | 6.4 | 0.00 | 0.89 | 0.89 | 90 | 1050.2 |
| 20260905124931 | 21 | 43 | 3.2 | 9.7 | 0.00 | 0.89 | 0.89 | 90 | 1050.1 |
| 20260905124428 | 21 | 57 | 3.2 | 11.3 | 0.00 | 0.89 | 0.89 | 90 | 1050.1 |
| 20260905123928 | 21 | 344 | 4.8 | 6.4 | 0.00 | 0.89 | 0.89 | 90 | 1050.3 |
| 20260905123425 | 21 | 38 | 1.6 | 4.8 | 0.00 | 0.89 | 0.89 | 90 | 1050.4 |
| 20260905122919 | 21 | 344 | 6.4 | 11.3 | 0.00 | 0.89 | 0.89 | 90 | 1050.0 |
| 20260905122419 | 21 | 347 | 3.2 | 9.7 | 0.13 | 0.89 | 0.89 | 91 | 1049.8 |
| 20260905121915 | 21 | 310 | 4.8 | 4.8 | 0.61 | 0.89 | 0.89 | 92 | 1049.6 |
| 20260905121410 | 21 | 338 | 3.2 | 6.4 | 0.48 | 0.84 | 0.84 | 93 | 1049.7 |
| 20260905120909 | 21 | 354 | 1.6 | 3.2 | 1.07 | 0.79 | 0.79 | 92 | 1049.6 |
| 20260905120409 | 21 | 342 | 1.6 | 9.7 | 0.79 | 0.74 | 0.74 | 91 | 1049.7 |
| 20260905115904 | 21 | 323 | 1.6 | 4.8 | 0.61 | 0.61 | 0.61 | 92 | 1049.8 |
| 20260905115403 | 21 | 323 | 3.2 | 11.3 | 0.48 | 0.58 | 0.58 | 93 | 1050.2 |
| 20260905114859 | 21 | 315 | 9.7 | 11.3 | 0.18 | 0.51 | 0.51 | 93 | 1049.8 |
| 20260905114358 | 21 | 54 | 1.6 | 1.6 | 0.89 | 0.51 | 0.51 | 92 | 1049.4 |
| 20260905113857 | 21 | 93 | 3.2 | 3.2 | 1.50 | 0.48 | 0.48 | 91 | 1049.6 |
| 20260905113353 | 21 | 226 | 3.2 | 3.2 | 0.61 | 0.30 | 0.30 | 91 | 1050.2 |
| 20260905112848 | 21 | 310 | 1.6 | 1.6 | 0.30 | 0.23 | 0.23 | 90 | 1049.8 |
| 20260905112343 | 21 | 310 | 0.0 | 3.2 | 1.27 | 0.20 | 0.20 | 89 | 1049.8 |
| 20260905111839 | 22 | 306 | 8.0 | 17.7 | 0.89 | 0.15 | 0.15 | 87 | 1049.7 |
| 20260905111338 | 22 | 324 | 9.7 | 12.9 | 0.00 | 0.00 | 0.00 | 85 | 1049.6 |
| 20260905110838 | 23 | 309 | 11.3 | 22.5 | 0.00 | 0.00 | 0.00 | 82 | 1049.9 |
| 20260905110331 | 23 | 307 | 19.3 | 22.5 | 0.00 | 0.00 | 0.00 | 83 | 1049.7 |
| 20260905105827 | 23 | 341 | 12.9 | 22.5 | 0.00 | 0.00 | 0.00 | 83 | 1048.9 |
| 20260905105326 | 23 | 317 | 14.5 | 24.1 | 0.00 | 0.00 | 0.00 | 82 | 1048.8 |
| 20260905104820 | 24 | 317 | 19.3 | 24.1 | 0.00 | 0.00 | 0.00 | 82 | 1048.7 |
| 20260905104318 | 25 | 317 | 19.3 | 25.7 | 0.00 | 0.00 | 0.00 | 82 | 1048.4 |
| 20260905103817 | 25 | 60 | 16.1 | 20.9 | 0.00 | 0.00 | 0.00 | 84 | 1048.3 |
| 20260905103312 | 24 | 303 | 9.7 | 12.9 | 0.00 | 0.00 | 0.00 | 85 | 1048.2 |
| 20260905102808 | 22 | 303 | 9.7 | 14.5 | 0.00 | 0.00 | 0.00 | 92 | 1048.0 |
| 20260905102306 | 22 | 204 | 0.0 | 0.0 | 0.00 | 0.00 | 0.00 | 91 | 1047.2 |
| 20260905101804 | 23 | 204 | 0.0 | 0.0 | 0.00 | 0.00 | 0.00 | 91 | 1047.4 |
| 20260905101302 | 22 | 204 | 0.0 | 0.0 | 0.00 | 0.00 | 0.00 | 91 | 1047.2 |
| 20260905100758 | 22 | 203 | 1.6 | 1.6 | 0.00 | 0.00 | 0.00 | 90 | 1047.3 |
| 20260905100254 | 22 | 204 | 0.0 | 0.0 | 0.00 | 0.00 | 0.00 | 90 | 1047.5 |
| 20260905095753 | 22 | 203 | 1.6 | 1.6 | 0.00 | 0.00 | 0.00 | 90 | 1047.3 |
| 20260905095252 | 22 | 204 | 0.0 | 0.0 | 0.00 | 0.00 | 0.00 | 89 | 1047.5 |
| 20260905094747 | 23 | 204 | 0.0 | 0.0 | 0.00 | 0.00 | 0.00 | 89 | 1047.7 |
| 20260905094243 | 23 | 204 | 0.0 | 0.0 | 0.00 | 0.00 | 0.00 | 89 | 1047.5 |
| 20260905093742 | 23 | 204 | 0.0 | 0.0 | 0.00 | 0.00 | 0.00 | 89 | 1047.2 |
| 20260905093238 | 23 | 204 | 0.0 | 0.0 | 0.00 | 0.00 | 0.00 | 88 | 1047.3 |
| 20260905092733 | 23 | 204 | 1.6 | 1.6 | 0.00 | 0.00 | 0.00 | 86 | 1047.2 |
| 20260905092229 | 23 | 204 | 0.0 | 0.0 | 0.00 | 0.00 | 0.00 | 85 | 1047.5 |
| 20260905091728 | 24 | 204 | 0.0 | 0.0 | 0.00 | 0.00 | 0.00 | 84 | 1047.4 |
| 20260905091223 | 24 | 204 | 0.0 | 0.0 | 0.00 | 0.00 | 0.00 | 85 | 1047.2 |
| 20260905090722 | 24 | 204 | 0.0 | 0.0 | 0.00 | 0.00 | 0.00 | 85 | 1047.2 |
| 20260905090218 | 24 | 204 | 0.0 | 0.0 | 0.00 | 0.00 | 0.00 | 84 | 1047.1 |
| 20260905085717 | 24 | 204 | 0.0 | 0.0 | 0.00 | 0.00 | 0.00 | 84 | 1047.1 |
| 20260905085212 | 25 | 204 | 0.0 | 1.6 | 0.00 | 0.00 | 0.00 | 83 | 1047.3 |
| 20260905084712 | 25 | 204 | 0.0 | 0.0 | 0.00 | 0.00 | 0.00 | 82 | 1047.5 |
| 20260905084207 | 25 | 204 | 0.0 | 0.0 | 0.00 | 0.00 | 0.00 | 81 | 1047.3 |
| 20260905083707 | 25 | 204 | 1.6 | 3.2 | 0.00 | 0.00 | 0.00 | 81 | 1047.3 |
| 20260905083203 | 25 | 215 | 1.6 | 1.6 | 0.00 | 0.00 | 0.00 | 81 | 1047.1 |
| 20260905082659 | 25 | 215 | 1.6 | 1.6 | 0.00 | 0.00 | 0.00 | 81 | 1047.1 |
| 20260905082155 | 25 | 215 | 1.6 | 3.2 | 0.00 | 0.00 | 0.00 | 80 | 1047.2 |
| 20260905081655 | 25 | 213 | 1.6 | 3.2 | 0.00 | 0.00 | 0.00 | 79 | 1047.0 |
| 20260905081150 | 25 | 199 | 3.2 | 4.8 | 0.00 | 0.00 | 0.00 | 79 | 1046.9 |
| 20260905080649 | 25 | 201 | 3.2 | 3.2 | 0.00 | 0.00 | 0.00 | 80 | 1046.9 |
| 20260905080149 | 25 | 209 | 1.6 | 4.8 | 0.00 | 0.00 | 0.00 | 81 | 1046.8 |
| 20260905075648 | 24 | 175 | 1.6 | 3.2 | 0.00 | 0.00 | 0.00 | 83 | 1046.9 |
| 20260905075148 | 23 | 193 | 3.2 | 3.2 | 0.00 | 0.00 | 0.00 | 87 | 1047.2 |
| 20260905074646 | 23 | 195 | 0.0 | 0.0 | 0.00 | 0.00 | 0.00 | 88 | 1047.1 |
| 20260905074142 | 23 | 195 | 0.0 | 0.0 | 0.00 | 0.00 | 0.00 | 87 | 1047.3 |
| 20260905073638 | 23 | 195 | 0.0 | 1.6 | 0.00 | 0.00 | 0.00 | 86 | 1047.0 |
| 20260905073134 | 23 | 195 | 0.0 | 0.0 | 0.00 | 0.00 | 0.00 | 86 | 1047.2 |
| 20260905072633 | 23 | 195 | 0.0 | 0.0 | 0.00 | 0.00 | 0.00 | 86 | 1047.2 |
| 20260905072128 | 24 | 195 | 0.0 | 0.0 | 0.00 | 0.00 | 0.00 | 85 | 1047.4 |
| 20260905071625 | 24 | 195 | 0.0 | 1.6 | 0.00 | 0.00 | 0.00 | 85 | 1047.3 |
| 20260905071120 | 24 | 195 | 1.6 | 1.6 | 0.00 | 0.00 | 0.00 | 85 | 1047.4 |
| 20260905070615 | 23 | 195 | 0.0 | 1.6 | 0.00 | 0.00 | 0.00 | 87 | 1047.5 |
| 20260905070111 | 23 | 196 | 1.6 | 1.6 | 0.00 | 0.00 | 0.00 | 88 | 1047.6 |
| 20260905065609 | 23 | 196 | 0.0 | 1.6 | 0.00 | 0.00 | 0.00 | 89 | 1047.6 |
| 20260905065105 | 23 | 195 | 0.0 | 0.0 | 0.00 | 0.00 | 0.00 | 90 | 1047.6 |
| 20260905064604 | 23 | 196 | 0.0 | 0.0 | 0.00 | 0.00 | 0.00 | 90 | 1047.8 |
| 20260905064100 | 23 | 196 | 0.0 | 0.0 | 0.00 | 0.00 | 0.00 | 90 | 1047.9 |
| 20260905063558 | 23 | 195 | 0.0 | 0.0 | 0.00 | 0.00 | 0.00 | 89 | 1048.1 |
| 20260905063056 | 23 | 196 | 0.0 | 0.0 | 0.00 | 0.00 | 0.00 | 89 | 1048.0 |
| 20260905062551 | 23 | 195 | 1.6 | 1.6 | 0.00 | 0.00 | 0.00 | 89 | 1047.9 |
| 20260905062050 | 23 | 196 | 0.0 | 0.0 | 0.00 | 0.00 | 0.00 | 88 | 1048.1 |
| 20260905061545 | 23 | 196 | 0.0 | 1.6 | 0.00 | 0.00 | 0.00 | 88 | 1048.0 |
| 20260905061044 | 23 | 202 | 3.2 | 3.2 | 0.00 | 0.00 | 0.00 | 89 | 1048.1 |
| 20260905060541 | 23 | 216 | 0.0 | 0.0 | 0.00 | 0.00 | 0.00 | 89 | 1048.1 |
| 20260905060036 | 23 | 216 | 0.0 | 0.0 | 0.00 | 0.00 | 0.00 | 88 | 1048.2 |
| 20260905055535 | 23 | 217 | 0.0 | 0.0 | 0.00 | 0.00 | 0.00 | 87 | 1048.3 |
| 20260905055030 | 23 | 216 | 0.0 | 0.0 | 0.00 | 0.00 | 0.00 | 87 | 1048.2 |
| 20260905054526 | 23 | 216 | 0.0 | 0.0 | 0.00 | 0.00 | 0.00 | 86 | 1048.5 |
| 20260905054021 | 23 | 216 | 0.0 | 0.0 | 0.00 | 0.00 | 0.00 | 87 | 1048.5 |
| 20260905053515 | 23 | 217 | 0.0 | 0.0 | 0.00 | 0.00 | 0.00 | 87 | 1048.3 |
| 20260905053011 | 23 | 216 | 0.0 | 1.6 | 0.00 | 0.00 | 0.00 | 87 | 1048.5 |
| 20260905052510 | 23 | 216 | 1.6 | 1.6 | 0.00 | 0.00 | 0.00 | 87 | 1048.4 |
| 20260905052010 | 23 | 216 | 0.0 | 0.0 | 0.00 | 0.00 | 0.00 | 86 | 1048.7 |
| 20260905051505 | 23 | 217 | 0.0 | 0.0 | 0.00 | 0.00 | 0.00 | 85 | 1048.6 |
| 20260905051003 | 23 | 217 | 0.0 | 0.0 | 0.00 | 0.00 | 0.00 | 85 | 1048.6 |
| 20260905050458 | 23 | 216 | 0.0 | 0.0 | 0.00 | 0.00 | 0.00 | 85 | 1048.6 |
| 20260905045954 | 23 | 216 | 0.0 | 0.0 | 0.00 | 0.00 | 0.00 | 85 | 1048.7 |
| 20260905045449 | 24 | 216 | 0.0 | 0.0 | 0.00 | 0.00 | 0.00 | 85 | 1048.7 |
| 20260905044945 | 23 | 217 | 0.0 | 0.0 | 0.00 | 0.00 | 0.00 | 85 | 1048.6 |
| 20260905044444 | 23 | 216 | 0.0 | 0.0 | 0.00 | 0.00 | 0.00 | 84 | 1048.6 |
| 20260905043938 | 24 | 217 | 0.0 | 0.0 | 0.00 | 0.00 | 0.00 | 84 | 1048.6 |
| 20260905043437 | 24 | 217 | 0.0 | 0.0 | 0.00 | 0.00 | 0.00 | 84 | 1048.6 |
| 20260905042932 | 24 | 217 | 1.6 | 1.6 | 0.00 | 0.00 | 0.00 | 84 | 1048.6 |
| 20260905042427 | 24 | 217 | 0.0 | 0.0 | 0.00 | 0.00 | 0.00 | 83 | 1048.5 |
| 20260905041922 | 24 | 217 | 0.0 | 0.0 | 0.00 | 0.00 | 0.00 | 84 | 1048.5 |
| 20260905041418 | 24 | 217 | 0.0 | 0.0 | 0.00 | 0.00 | 0.00 | 84 | 1048.7 |
| 20260905040919 | 24 | 217 | 0.0 | 0.0 | 0.00 | 0.00 | 0.00 | 84 | 1048.6 |
| 20260905040418 | 24 | 217 | 0.0 | 0.0 | 0.00 | 0.00 | 0.00 | 83 | 1048.6 |